DateTimeUTC,F1_A11,F1_S11,BsB_S11,BsG_S11,BsR_S11,BbsB_S11,BbsG_S11,BbsR_S11,BaB_A11,BaG_A11,BaR_A11,T_S11,U_S11,P_S11,T1_A11
2020-05-19T00:00:00Z,00000380,20000600,,,,,,,,,,26.5,01.0,0674.4,31.2
2020-05-19T00:01:00Z,00000380,20000600,,,,,,,,,,26.5,01.0,0674.4,31.2
2020-05-19T00:02:00Z,00000380,20000600,,,,,,,,,,26.5,01.0,0674.4,31.2
2020-05-19T00:03:00Z,00000380,60000600,,,,,,,,,,26.5,01.0,0674.4,31.3
2020-05-19T00:04:00Z,00000380,41000600,0000.34,0000.08,-000.57,0000.50,-000.33,0000.03,0000.13,-000.07,-000.20,26.4,00.9,0675.2,31.3
2020-05-19T00:05:00Z,00000380,01000600,0000.34,0001.16,0000.30,0001.14,-000.04,-000.64,-000.21,-000.18,0000.11,26.3,00.9,0675.3,31.2
2020-05-19T00:06:00Z,00000380,01000600,0000.40,0000.40,-000.53,0000.66,-000.29,-000.49,0000.13,0000.15,0000.08,26.3,00.9,0675.3,31.2
2020-05-19T00:07:00Z,00000380,01000600,0000.68,0000.19,-000.21,-000.11,0000.03,-000.09,-000.09,0000.00,-000.17,26.3,00.9,0675.3,31.3
2020-05-19T00:08:00Z,00000380,01000600,0000.74,0001.12,-000.29,0000.71,-000.05,-000.47,0000.01,-000.08,-000.08,26.3,00.9,0675.3,31.3
2020-05-19T00:09:00Z,00000380,01000600,-001.26,-000.51,-000.37,0001.82,0000.02,-000.27,0000.03,0000.13,0000.26,26.3,00.9,0675.3,31.2
2020-05-19T00:10:00Z,00000380,01000600,0000.34,0000.16,-000.35,0000.95,-000.21,-000.05,0000.10,0000.08,0000.06,26.3,00.9,0675.3,31.2
2020-05-19T00:11:00Z,00000380,01000600,-000.84,0000.25,-000.17,0000.42,0000.43,0000.14,0000.02,-000.12,-000.22,26.2,00.8,0675.3,31.2
2020-05-19T00:12:00Z,00000380,01000600,0002.37,0000.37,0000.21,0001.75,-000.32,0000.42,-000.04,0000.01,0000.17,26.3,00.8,0675.3,31.2
2020-05-19T00:13:00Z,00000380,01000600,0000.75,0000.13,-000.35,0001.26,-000.05,-000.31,0000.04,-000.04,-000.08,26.2,00.9,0675.3,31.2
2020-05-19T00:14:00Z,00000380,01000600,0000.44,0000.31,-000.13,-000.25,-000.10,0000.39,-000.22,-000.01,0000.06,26.2,00.9,0675.2,31.3
2020-05-19T00:15:00Z,00000380,01000600,0000.92,0000.30,-000.12,0000.03,-000.18,0000.13,0000.09,0000.04,-000.03,26.2,00.8,0675.2,31.2
2020-05-19T00:16:00Z,00000380,01000600,0000.43,0000.27,-000.76,0000.00,0000.13,-000.17,0000.07,-000.05,0000.01,26.2,00.8,0675.2,31.2
2020-05-19T00:17:00Z,00000380,01000600,0001.01,0000.73,-000.10,-000.07,0000.21,-000.11,-000.00,-000.03,0000.08,26.2,00.8,0675.2,31.2
2020-05-19T00:18:00Z,00000380,01000600,0000.59,0000.65,-000.17,-000.41,-000.23,-000.15,0000.02,0000.05,-000.03,26.2,00.9,0675.2,31.2
2020-05-19T00:19:00Z,00000380,01000600,0001.50,0000.24,-000.28,0001.38,-000.17,-000.12,-000.00,0000.15,0000.08,26.2,00.9,0675.2,31.3
2020-05-19T00:20:00Z,00000380,01000600,0001.08,0000.68,-000.58,0000.84,-000.28,-000.56,0000.08,0000.01,0000.03,26.2,00.9,0675.2,31.3
2020-05-19T00:21:00Z,00000380,01000600,0000.30,0000.43,-000.33,-000.27,0000.02,-000.33,-000.03,0000.06,-000.22,26.2,00.9,0675.2,31.2
2020-05-19T00:22:00Z,00000380,01000600,0000.63,-000.06,-000.34,0000.40,0000.10,-000.08,-000.10,-000.14,0000.22,26.2,00.9,0675.2,31.2
2020-05-19T00:23:00Z,00000380,01000600,0000.44,0000.48,-000.34,0000.13,0000.15,-000.41,0000.05,0000.02,-000.11,26.2,00.9,0675.2,31.2
2020-05-19T00:24:00Z,00000380,01000600,0000.13,0000.37,-000.75,-000.52,0000.12,-000.28,-000.15,-000.06,-000.05,26.2,00.8,0675.2,31.2
2020-05-19T00:25:00Z,00000380,01000600,0001.30,-000.06,-000.15,0000.06,0000.33,0000.21,0000.07,0000.07,0000.13,26.2,00.8,0675.2,31.2
2020-05-19T00:26:00Z,00000380,01000600,-000.94,0000.40,-000.51,0000.40,-000.29,0000.05,0000.02,-000.07,-000.02,26.2,00.7,0675.2,31.2
2020-05-19T00:27:00Z,00000380,01000600,0000.18,0001.30,-000.59,0000.26,0000.31,-000.13,-000.06,-000.13,0000.05,26.2,00.7,0675.2,31.2
2020-05-19T00:28:00Z,00000380,01000600,0000.28,0000.59,-000.00,0000.41,0000.28,-000.13,0000.01,0000.08,-000.13,26.2,00.7,0675.2,31.2
2020-05-19T00:29:00Z,00000380,01000600,0000.21,-000.07,-000.51,0001.11,-000.42,-000.36,-000.05,-000.04,0000.13,26.2,00.7,0675.2,31.2
2020-05-19T00:30:00Z,00000380,01000600,0000.98,-000.28,-000.25,0000.66,0000.42,-000.16,-000.02,-000.01,-000.16,26.2,00.7,0675.2,31.2
2020-05-19T00:31:00Z,00000380,01000600,-000.18,0000.19,-000.53,0001.23,0000.16,-000.24,-000.04,-000.04,0000.10,26.2,00.7,0675.2,31.2
2020-05-19T00:32:00Z,00000380,01000600,0000.38,0000.12,-000.28,0001.19,-000.13,-000.25,0000.01,0000.03,0000.08,26.2,00.7,0675.2,31.2
2020-05-19T00:33:00Z,00000380,01000600,-001.15,0000.66,0000.05,0001.16,0000.08,-000.52,-000.05,0000.02,-000.06,26.2,00.7,0675.2,31.2
2020-05-19T00:34:00Z,00000380,01000600,-000.12,0000.34,-000.34,0000.89,0000.28,0000.07,0000.05,-000.06,-000.02,26.2,00.7,0675.2,31.2
2020-05-19T00:35:00Z,00000380,01000600,0000.08,-000.42,0000.50,0000.10,0000.02,0000.32,-000.15,-000.02,-000.01,26.1,00.6,0675.2,31.2
2020-05-19T00:36:00Z,00000380,01000600,0001.68,0000.04,0000.02,0000.42,0000.53,0000.02,-000.04,0000.10,-000.03,26.1,00.6,0675.2,31.3
2020-05-19T00:37:00Z,00000380,01000600,0000.52,0000.31,0000.03,0000.46,0000.09,-000.20,-000.00,-000.12,-000.04,26.1,00.6,0675.1,31.2
2020-05-19T00:38:00Z,00000380,01000600,-000.26,0000.42,-000.27,0000.22,-000.19,-000.22,-000.12,-000.12,-000.14,26.1,00.5,0675.1,31.2
2020-05-19T00:39:00Z,00000380,01000600,0000.25,0000.17,-000.34,0001.10,0000.11,0000.03,0000.07,0000.12,0000.17,26.1,00.5,0675.1,31.2
2020-05-19T00:40:00Z,00000380,01000600,0000.11,0000.26,-000.76,0000.53,0000.28,-000.45,-000.04,-000.11,-000.05,26.1,00.4,0675.1,31.2
2020-05-19T00:41:00Z,00000380,01000600,0000.52,-000.03,-000.48,0001.13,-000.20,-000.12,-000.00,-000.12,0000.01,26.1,00.4,0675.1,31.2
2020-05-19T00:42:00Z,00000380,01000600,-001.17,0000.10,-000.11,0001.16,0000.21,0000.19,-000.05,0000.04,-000.09,26.1,00.4,0675.1,31.2
2020-05-19T00:43:00Z,00000380,01000600,0000.74,0000.67,-000.76,0001.31,-000.04,-000.20,-000.02,-000.05,0000.12,26.1,00.4,0675.1,31.2
2020-05-19T00:44:00Z,00000380,01000600,-000.67,0000.86,0000.42,0000.72,0000.16,-000.10,-000.01,0000.10,-000.12,26.1,00.4,0675.1,31.2
2020-05-19T00:45:00Z,00000380,01000600,0001.19,0000.69,-000.69,0000.49,0000.45,-000.45,-000.04,-000.02,0000.04,26.1,00.3,0675.1,31.2
2020-05-19T00:46:00Z,00000380,01000600,0000.24,-000.01,0000.76,0000.77,0000.22,-000.12,-000.05,-000.02,-000.07,26.1,00.3,0675.1,31.2
2020-05-19T00:47:00Z,00000380,01000600,0000.28,-000.17,0000.11,-000.22,-000.01,0000.13,0000.03,-000.06,0000.13,26.1,00.4,0675.1,31.2
2020-05-19T00:48:00Z,00000380,01000600,0000.51,0000.10,-000.10,0001.57,0000.15,-000.14,0000.06,0000.12,-000.07,26.1,00.4,0675.1,31.2
2020-05-19T00:49:00Z,00000380,01000600,0000.27,-000.61,-000.26,-000.33,0000.00,-000.13,0000.01,-000.08,0000.01,26.1,00.3,0675.1,31.2
2020-05-19T00:50:00Z,00000380,01000600,0000.64,0000.10,-000.69,0001.28,0000.15,0000.37,0000.06,0000.09,0000.11,26.1,00.4,0675.1,31.2
2020-05-19T00:51:00Z,00000380,01000600,-000.29,0000.65,-000.30,0000.17,0000.27,0000.08,0000.01,-000.03,0000.01,26.1,00.4,0675.1,31.2
2020-05-19T00:52:00Z,00000380,01000600,0000.53,-000.09,-000.22,0000.18,0000.19,-000.23,-000.02,-000.01,-000.16,26.1,00.4,0675.1,31.2
2020-05-19T00:53:00Z,00000380,01000600,-001.40,0000.83,-000.51,-000.12,-000.14,0000.28,0000.07,-000.04,0000.15,26.1,00.3,0675.1,31.2
2020-05-19T00:54:00Z,00000380,01000600,0000.93,0000.30,0000.09,0000.51,0000.14,0000.41,0000.09,0000.08,-000.07,26.1,00.3,0675.1,31.2
2020-05-19T00:55:00Z,00000380,01000600,0000.87,0000.46,0000.24,0000.60,-000.03,0000.02,-000.10,-000.03,0000.04,26.0,00.3,0675.1,31.2
2020-05-19T00:56:00Z,00000380,01000600,-000.28,-000.03,-000.22,0000.40,0000.18,0000.19,0000.03,-000.05,-000.04,26.0,00.3,0675.1,31.2
2020-05-19T00:57:00Z,00000380,41000600,,,,,,,,,,26.1,00.4,0675.1,31.2
2020-05-19T00:58:00Z,00000380,61000600,,,,,,,,,,26.2,00.3,0674.2,31.2
2020-05-19T00:59:00Z,00000380,21000600,,,,,,,,,,26.3,00.2,0674.1,31.2
2020-05-19T01:00:00Z,00000380,21000600,,,,,,,,,,26.3,00.2,0674.1,31.2
2020-05-19T01:01:00Z,00000380,21000600,,,,,,,,,,26.3,00.2,0674.1,31.2
2020-05-19T01:02:00Z,00000380,21000600,,,,,,,,,,26.3,00.2,0674.1,31.2
2020-05-19T01:03:00Z,00000380,61000600,,,,,,,,,,26.3,00.2,0674.1,31.2
2020-05-19T01:04:00Z,00000380,41000600,0000.62,0000.19,-000.04,-000.05,-000.17,-000.10,0000.02,0000.05,-000.02,26.1,00.2,0675.0,31.2
2020-05-19T01:05:00Z,00000380,01000600,0000.35,-000.20,0000.24,0000.87,0000.12,-000.10,-000.02,-000.19,0000.19,26.1,00.1,0675.1,31.2
2020-05-19T01:06:00Z,00000380,01000600,0000.13,-000.34,0000.02,-000.30,0000.13,-000.04,0000.00,0000.03,-000.10,26.0,00.2,0675.1,31.2
2020-05-19T01:07:00Z,00000380,01000600,-000.47,-000.02,0000.26,0000.21,0000.08,0000.21,0000.02,0000.07,-000.03,26.0,00.2,0675.0,31.2
2020-05-19T01:08:00Z,00000380,01000600,0000.30,0000.58,0000.33,-000.32,0000.40,0000.14,0000.13,0000.03,0000.20,26.0,00.2,0675.0,31.2
2020-05-19T01:09:00Z,00000380,01000600,-000.74,0000.26,0000.10,0000.05,-000.02,-000.14,-000.08,0000.03,-000.14,26.0,00.2,0675.0,31.3
2020-05-19T01:10:00Z,00000380,01000600,0000.24,0000.42,0000.03,0000.12,0000.19,0000.25,0000.17,0000.03,0000.08,26.0,00.2,0675.0,31.2
2020-05-19T01:11:00Z,00000380,01000600,-001.13,0000.11,-000.27,0000.41,-000.22,0000.14,0000.00,0000.02,-000.01,26.0,00.2,0675.0,31.2
2020-05-19T01:12:00Z,00000380,01000600,-000.37,0000.40,0000.24,-000.40,0000.32,-000.03,0000.02,-000.21,0000.02,26.0,00.2,0675.0,31.2
2020-05-19T01:13:00Z,00000380,01000600,0000.12,0000.03,-000.33,0000.64,-000.03,-000.71,-000.06,0000.18,-000.04,26.0,00.2,0675.0,31.2
2020-05-19T01:14:00Z,00000380,01000600,-000.21,0000.12,-000.17,0000.43,0000.21,-000.11,-000.05,-000.10,0000.13,25.9,00.2,0675.0,31.2
2020-05-19T01:15:00Z,00000380,01000600,-000.19,-000.02,-000.05,0000.06,-000.05,-000.28,0000.03,0000.04,-000.12,26.0,00.2,0675.0,31.2
2020-05-19T01:16:00Z,00000380,01000600,-000.25,-000.06,0000.11,0000.64,0000.15,-000.09,-000.02,-000.01,0000.02,26.0,00.2,0675.0,31.2
2020-05-19T01:17:00Z,00000380,01000600,-000.83,0000.36,0000.35,-000.05,-000.23,0000.38,-000.12,-000.05,-000.08,25.9,00.1,0675.0,31.2
2020-05-19T01:18:00Z,00000380,01000600,0000.03,0000.13,0000.01,-000.61,-000.39,0000.30,0000.23,0000.19,0000.13,25.9,00.1,0675.0,31.2
2020-05-19T01:19:00Z,00000380,01000600,0000.10,-000.36,-000.15,0000.67,-000.24,-000.10,-000.10,-000.10,-000.08,25.9,00.1,0675.0,31.2
2020-05-19T01:20:00Z,00000380,01000600,0000.27,0000.08,0000.43,-000.06,0000.35,-000.20,0000.09,-000.01,-000.05,25.9,00.1,0675.0,31.2
2020-05-19T01:21:00Z,00000380,01000600,-000.08,0000.14,-000.33,0000.40,-000.12,-000.30,0000.01,0000.13,0000.11,25.9,00.2,0675.0,31.2
2020-05-19T01:22:00Z,00000380,01000600,0000.41,-000.34,-000.09,-000.14,-000.00,-000.31,-000.01,-000.07,-000.07,25.9,00.2,0675.0,31.2
2020-05-19T01:23:00Z,00000380,01000600,0000.30,0000.05,-000.28,0000.40,0000.05,-000.43,0000.03,0000.02,0000.07,25.9,00.2,0674.9,31.2
2020-05-19T01:24:00Z,00000380,01000600,-000.58,0000.45,-000.43,-000.05,-000.40,-000.73,0000.20,0000.09,0000.01,25.9,00.1,0674.9,31.2
2020-05-19T01:25:00Z,00000380,01000600,-000.07,0000.19,-000.54,0000.50,0000.02,-000.35,-000.23,-000.26,0000.03,25.9,00.1,0674.9,31.2
2020-05-19T01:26:00Z,00000380,01000600,-000.38,-000.41,-000.34,0000.87,0000.11,-000.57,-000.01,0000.05,-000.05,25.9,00.2,0674.9,31.2
2020-05-19T01:27:00Z,00000380,01000600,-000.55,-000.03,-000.18,0000.18,0000.04,0000.13,-000.03,0000.15,-000.08,25.9,00.1,0674.9,31.2
2020-05-19T01:28:00Z,00000380,01000600,-000.69,0000.41,0000.05,-000.01,-000.08,0000.14,0000.07,-000.11,0000.04,25.9,00.1,0674.9,31.2
2020-05-19T01:29:00Z,00000380,01000600,-000.03,0000.02,0000.25,0001.11,0000.38,0000.46,0000.01,0000.03,-000.00,25.9,00.1,0674.9,31.2
2020-05-19T01:30:00Z,00000380,01000600,-001.19,-000.11,-000.13,0000.40,-000.11,-000.84,-000.12,0000.03,-000.07,25.9,00.1,0674.9,31.2
2020-05-19T01:31:00Z,00000380,01000600,-000.07,-000.24,-000.04,0000.70,0000.34,0000.02,-000.08,-000.14,-000.04,25.9,00.1,0674.9,31.2
2020-05-19T01:32:00Z,00000380,01000600,0000.76,-000.20,-000.12,0000.06,-000.37,-000.19,-000.02,-000.08,0000.03,25.9,00.0,0674.9,31.2
2020-05-19T01:33:00Z,00000380,01000600,0000.50,0000.21,-000.35,-000.25,-000.06,0000.24,0000.06,0000.03,-000.04,25.9,00.1,0674.9,31.2
2020-05-19T01:34:00Z,00000380,01000600,-000.61,0000.05,0000.05,-000.06,0000.29,-000.19,0000.14,0000.11,0000.15,25.9,00.0,0674.9,31.2
2020-05-19T01:35:00Z,00000380,01000600,-000.65,0000.36,-000.01,0000.44,0000.35,0000.23,-000.17,-000.06,0000.02,25.8,00.1,0674.9,31.2
2020-05-19T01:36:00Z,00000380,01000600,-001.60,-000.08,-000.49,0001.17,0000.08,-000.25,-000.04,-000.07,-000.17,25.8,00.1,0674.9,31.2
2020-05-19T01:37:00Z,00000380,01000600,0000.17,0000.28,0000.07,0000.69,-000.10,-000.04,0000.00,-000.08,0000.11,25.8,00.1,0674.9,31.2
2020-05-19T01:38:00Z,00000380,01000600,-000.26,-000.15,-000.10,0000.37,-000.49,-000.29,-000.03,0000.08,-000.15,25.8,00.1,0674.8,31.2
2020-05-19T01:39:00Z,00000380,01000600,0000.23,-000.07,-000.25,0000.49,0000.22,0000.09,0000.17,0000.06,0000.11,25.8,00.0,0674.8,31.2
2020-05-19T01:40:00Z,00000380,01000600,-000.02,0000.29,-000.60,0000.29,0000.01,-000.04,-000.12,0000.02,0000.01,25.8,00.1,0674.8,31.2
2020-05-19T01:41:00Z,00000380,01000600,0000.17,-000.78,-000.10,-000.38,-000.15,-000.26,0000.21,0000.08,0000.17,25.8,00.0,0674.8,31.2
2020-05-19T01:42:00Z,00000380,01000600,-000.29,-000.42,-000.18,-000.12,0000.12,-000.02,-000.10,-000.10,-000.18,25.8,00.1,0674.8,31.2
2020-05-19T01:43:00Z,00000380,01000600,0001.09,-000.10,-000.17,-000.02,0000.18,0000.22,0000.08,0000.08,0000.09,25.8,00.1,0674.8,31.2
2020-05-19T01:44:00Z,00000380,01000600,-001.43,-000.01,-000.55,-000.28,0000.49,0000.35,0000.10,0000.02,0000.15,25.8,00.1,0674.8,31.2
2020-05-19T01:45:00Z,00000380,01000600,-000.04,0000.25,-000.26,0000.22,0000.12,-000.08,-000.14,-000.08,-000.11,25.8,00.1,0674.8,31.2
2020-05-19T01:46:00Z,00000380,01000600,-000.21,-000.25,-000.45,-000.53,-000.26,-000.30,0000.07,0000.22,0000.02,25.8,00.1,0674.8,31.2
2020-05-19T01:47:00Z,00000380,01000600,-000.50,-000.32,-000.13,0000.66,-000.22,0000.06,0000.01,-000.15,-000.01,25.8,00.0,0674.8,31.2
2020-05-19T01:48:00Z,00000380,01000600,-000.84,-000.10,0000.17,0000.34,-000.17,-000.05,0000.01,0000.12,0000.05,25.8,00.0,0674.8,31.2
2020-05-19T01:49:00Z,00000380,01000600,-000.36,0000.41,-000.11,0000.61,0000.36,-000.02,-000.09,-000.17,0000.00,25.8,00.0,0674.8,31.2
2020-05-19T01:50:00Z,00000380,01000600,0000.24,-000.30,-000.39,0000.04,0000.03,0000.22,-000.01,-000.05,-000.03,25.7,00.0,0674.8,31.2
2020-05-19T01:51:00Z,00000380,01000600,-000.30,0000.05,-000.07,0000.14,0000.26,0000.36,-000.04,0000.10,-000.05,25.7,00.0,0674.8,31.2
2020-05-19T01:52:00Z,00000380,01000600,-000.43,-000.26,-000.19,0000.36,0000.22,0000.15,0000.27,0000.25,0000.15,25.7,00.1,0674.8,31.2
2020-05-19T01:53:00Z,00000380,01000600,0000.18,-000.09,-000.09,0000.15,-000.13,-000.27,-000.18,-000.17,-000.14,25.7,00.0,0674.8,31.2
2020-05-19T01:54:00Z,00000380,01000600,-001.50,0000.20,-000.04,0000.04,0000.32,0000.34,-000.07,-000.09,-000.08,25.7,00.1,0674.8,31.2
2020-05-19T01:55:00Z,00000380,01000600,0000.07,-000.06,-000.35,-000.06,-000.13,0000.13,0000.16,0000.09,0000.10,25.7,00.0,0674.8,31.2
2020-05-19T01:56:00Z,00000380,01000600,-001.35,-000.28,0000.68,0000.36,-000.00,0000.11,-000.07,0000.10,-000.03,25.7,00.0,0674.7,31.2
2020-05-19T01:57:00Z,00000380,41000600,,,,,,,,,,25.8,00.0,0674.7,31.2
2020-05-19T01:58:00Z,00000380,61000600,,,,,,,,,,25.8,00.0,0673.8,31.2
2020-05-19T01:59:00Z,00000380,21000600,,,,,,,,,,25.9,00.0,0673.8,31.2
2020-05-19T02:00:00Z,00000380,21000600,,,,,,,,,,25.9,00.0,0673.8,31.2
2020-05-19T02:01:00Z,00000380,21000600,,,,,,,,,,25.9,00.0,0673.8,31.2
2020-05-19T02:02:00Z,00000380,21000600,,,,,,,,,,25.9,00.0,0673.8,31.2
2020-05-19T02:03:00Z,00000380,61000600,,,,,,,,,,25.9,00.0,0673.8,31.2
2020-05-19T02:04:00Z,00000380,41000600,0001.32,0000.64,-000.25,0000.33,0000.14,-000.48,0000.16,-000.09,0000.11,25.8,00.0,0674.6,31.2
2020-05-19T02:05:00Z,00000380,01000600,-000.32,-000.02,-000.10,0000.29,-000.14,-000.36,-000.06,0000.12,0000.07,25.7,00.0,0674.7,31.2
2020-05-19T02:06:00Z,00000380,01000600,0001.07,0000.95,0000.12,0000.14,-000.13,0000.01,-000.09,-000.06,-000.31,25.7,00.0,0674.7,31.2
2020-05-19T02:07:00Z,00000380,01000600,-001.54,0000.61,-000.07,0000.37,-000.19,0000.01,0000.02,-000.01,0000.17,25.7,00.0,0674.7,31.2
2020-05-19T02:08:00Z,00000380,01000600,0000.64,0000.43,-000.25,0000.80,0000.04,-000.63,-000.03,-000.00,-000.10,25.7,00.0,0674.7,31.2
2020-05-19T02:09:00Z,00000380,01000600,-000.77,0000.30,0000.29,0000.82,-000.02,-000.09,0000.04,-000.09,0000.06,25.7,00.0,0674.7,31.2
2020-05-19T02:10:00Z,00000380,01000600,0000.23,0000.23,-000.23,0000.54,0000.15,-000.18,-000.11,0000.04,-000.15,25.7,00.0,0674.7,31.2
2020-05-19T02:11:00Z,00000380,01000600,-000.49,0000.02,0000.02,0000.54,-000.22,-000.18,0000.01,-000.05,0000.16,25.6,00.0,0674.7,31.2
2020-05-19T02:12:00Z,00000380,01000600,-001.24,-000.38,0000.15,0000.02,0000.25,-000.22,0000.01,-000.11,-000.09,25.6,00.0,0674.7,31.2
2020-05-19T02:13:00Z,00000380,01000600,0000.11,0000.37,-000.31,-000.14,0000.16,-000.28,0000.12,0000.07,0000.10,25.6,00.0,0674.7,31.2
2020-05-19T02:14:00Z,00000380,01000600,0000.05,0000.55,-000.21,0001.40,0000.19,-000.13,-000.09,0000.15,-000.04,25.6,00.0,0674.7,31.2
2020-05-19T02:15:00Z,00000380,01000600,0000.35,-000.34,0000.07,-000.25,0000.30,-000.47,0000.02,-000.00,-000.06,25.6,00.0,0674.7,31.2
2020-05-19T02:16:00Z,00000380,01000600,-000.06,0000.25,-000.02,0001.41,0000.04,-000.34,0000.07,-000.07,0000.11,25.6,00.0,0674.6,31.2
2020-05-19T02:17:00Z,00000380,01000600,-000.52,-000.06,-000.06,0000.08,-000.16,-000.01,-000.01,0000.12,-000.06,25.6,00.0,0674.6,31.2
2020-05-19T02:18:00Z,00000380,01000600,0000.25,-000.08,-000.26,-000.23,0000.46,-000.21,-000.03,-000.07,0000.18,25.6,00.0,0674.6,31.2
2020-05-19T02:19:00Z,00000380,01000600,-000.15,0000.37,0000.28,0000.75,0000.36,-000.41,0000.09,-000.06,0000.00,25.6,00.0,0674.6,31.2
2020-05-19T02:20:00Z,00000380,01000600,0000.39,0000.05,-000.14,0000.76,0000.01,-000.32,-000.05,0000.05,-000.08,25.6,00.0,0674.6,31.2
2020-05-19T02:21:00Z,00000380,01000600,-000.09,0000.31,0000.06,-000.01,0000.31,-000.42,-000.06,-000.10,-000.07,25.6,00.0,0674.6,31.2
2020-05-19T02:22:00Z,00000380,01000600,0001.04,-000.26,0000.61,0000.38,-000.00,-000.34,0000.01,0000.10,0000.07,25.6,00.0,0674.6,31.2
2020-05-19T02:23:00Z,00000380,01000600,0000.97,0000.83,0000.21,0000.74,-000.33,-000.16,0000.04,-000.05,-000.03,25.6,00.0,0674.6,31.2
2020-05-19T02:24:00Z,00000380,01000600,-001.41,0000.53,-000.74,-000.61,0000.20,-000.59,0000.12,0000.07,0000.09,25.6,00.0,0674.6,31.2
2020-05-19T02:25:00Z,00000380,01000600,-000.41,0000.54,0000.07,0000.73,-000.29,-000.26,-000.04,0000.07,-000.13,25.5,00.0,0674.6,31.2
2020-05-19T02:26:00Z,00000380,01000600,0000.35,0001.00,-000.04,0000.64,-000.08,0000.01,-000.06,0000.01,0000.01,25.5,00.0,0674.6,31.2
2020-05-19T02:27:00Z,00000380,01000600,0000.23,0000.45,0000.48,0000.01,0000.14,-000.05,0000.15,0000.12,0000.04,25.5,00.0,0674.6,31.2
2020-05-19T02:28:00Z,00000380,01000600,0001.05,0000.27,0000.36,0000.12,0000.11,0000.04,0000.02,-000.03,0000.23,25.5,00.0,0674.6,31.2
2020-05-19T02:29:00Z,00000380,01000600,-000.17,0001.18,0000.30,0000.57,0000.16,-000.25,0000.23,0000.23,0000.01,25.5,00.0,0674.6,31.2
2020-05-19T02:30:00Z,00000380,01000600,-000.46,0000.58,-000.04,0000.38,0000.14,0000.31,-000.11,-000.15,0000.10,25.5,00.0,0674.6,31.2
2020-05-19T02:31:00Z,00000380,01000600,0001.12,0000.52,0000.03,0000.64,0000.38,-000.32,-000.00,-000.08,-000.25,25.5,00.0,0674.6,31.2
2020-05-19T02:32:00Z,00000380,01000600,-000.63,0000.14,-000.01,0000.08,0000.12,-000.67,0000.03,0000.06,0000.22,25.5,00.0,0674.6,31.2
2020-05-19T02:33:00Z,00000380,01000600,-000.10,0000.18,0000.06,0001.46,-000.22,-000.22,-000.20,-000.06,-000.09,25.5,00.0,0674.5,31.2
2020-05-19T02:34:00Z,00000380,01000600,0000.11,0000.14,-000.07,0000.48,0000.23,-000.56,0000.19,0000.07,0000.12,25.5,00.0,0674.5,31.2
2020-05-19T02:35:00Z,00000380,01000600,-000.01,0000.68,0000.09,0000.21,0000.21,-000.36,0000.02,0000.05,0000.01,25.5,00.0,0674.5,31.2
2020-05-19T02:36:00Z,00000380,01000600,0000.71,-000.00,0000.20,0000.92,0000.02,-000.30,-000.02,-000.11,-000.17,25.5,00.0,0674.5,31.2
2020-05-19T02:37:00Z,00000380,01000600,0000.64,0000.86,-000.31,0000.44,0000.45,-000.57,-000.03,0000.00,0000.09,25.5,00.0,0674.5,31.2
2020-05-19T02:38:00Z,00000380,01000600,-001.05,0000.46,0000.26,0000.00,0000.68,0000.01,0000.14,0000.13,-000.01,25.5,00.0,0674.5,31.2
2020-05-19T02:39:00Z,00000380,01000600,-000.45,0000.19,0000.05,0000.96,0000.11,-000.45,-000.08,-000.16,0000.02,25.5,00.0,0674.5,31.2
2020-05-19T02:40:00Z,00000380,01000600,0001.70,0000.24,0000.02,0001.61,0000.05,-000.31,0000.15,0000.11,0000.09,25.4,00.0,0674.5,31.2
2020-05-19T02:41:00Z,00000380,01000600,0000.24,0000.63,-000.04,-000.01,0000.25,-000.45,-000.04,0000.09,-000.00,25.4,00.0,0674.5,31.2
2020-05-19T02:42:00Z,00000380,01000600,-000.51,0000.46,0000.10,0000.35,0000.02,-000.41,0000.12,0000.06,0000.02,25.4,00.0,0674.5,31.2
2020-05-19T02:43:00Z,00000380,01000600,-000.47,-000.00,0000.49,0000.34,0000.24,-000.81,0000.03,-000.02,-000.00,25.4,00.0,0674.5,31.2
2020-05-19T02:44:00Z,00000380,01000600,0000.12,-000.07,-000.17,0000.05,-000.04,-000.23,0000.05,0000.16,0000.09,25.4,00.1,0674.5,31.2
2020-05-19T02:45:00Z,00000380,01000600,-000.31,-000.18,0000.03,0000.85,0000.09,-000.73,0000.01,-000.05,0000.01,25.4,00.1,0674.5,31.2
2020-05-19T02:46:00Z,00000380,01000600,0001.14,0000.20,-000.48,0000.87,0000.04,0000.00,0000.35,0000.20,0000.25,25.4,00.1,0674.5,31.2
2020-05-19T02:47:00Z,00000380,01000600,-000.52,0000.40,0000.30,0001.32,0000.33,-000.13,-000.30,0000.03,-000.25,25.4,00.1,0674.4,31.2
2020-05-19T02:48:00Z,00000380,01000600,0001.04,0000.28,0000.48,-000.34,0000.41,0000.06,0000.04,-000.15,0000.04,25.4,00.1,0674.4,31.2
2020-05-19T02:49:00Z,00000380,01000600,-000.12,0000.37,-000.52,0001.08,-000.03,-000.57,-000.02,0000.12,0000.08,25.4,00.1,0674.4,31.2
2020-05-19T02:50:00Z,00000380,01000600,-000.38,-000.14,0000.17,0000.25,-000.33,-000.48,-000.05,-000.36,-000.18,25.4,00.1,0674.5,31.2
2020-05-19T02:51:00Z,00000380,01000600,-001.17,0000.47,0000.10,0000.65,-000.20,-000.07,0000.08,0000.20,0000.02,25.4,00.1,0674.5,31.2
2020-05-19T02:52:00Z,00000380,01000600,-000.19,0000.50,0000.19,0000.78,0000.02,-000.16,0000.15,0000.05,0000.14,25.4,00.0,0674.5,31.2
2020-05-19T02:53:00Z,00000380,01000600,-000.02,0000.91,0000.16,0000.95,-000.04,-000.51,-000.02,0000.04,0000.04,25.4,00.1,0674.5,31.2
2020-05-19T02:54:00Z,00000380,01000600,0000.27,0000.50,0000.20,0000.06,0000.18,0000.14,-000.03,0000.04,-000.04,25.4,00.1,0674.5,31.2
2020-05-19T02:55:00Z,00000380,01000600,-000.06,0000.19,-000.15,0000.20,0000.21,-000.18,0000.08,0000.08,0000.06,25.3,00.1,0674.5,31.1
2020-05-19T02:56:00Z,00000380,01000600,0001.68,0000.29,-000.48,0000.37,0000.27,-000.43,-000.00,-000.14,-000.05,25.4,00.1,0674.5,31.2
2020-05-19T02:57:00Z,00000380,41000600,,,,,,,,,,25.4,00.0,0674.5,31.2
2020-05-19T02:58:00Z,00000380,61000600,,,,,,,,,,25.5,00.0,0673.5,31.2
2020-05-19T02:59:00Z,00000380,21000600,,,,,,,,,,25.6,00.0,0673.5,31.2
2020-05-19T03:00:00Z,00000380,21000600,,,,,,,,,,25.6,00.0,0673.5,31.2
2020-05-19T03:01:00Z,00000380,21000600,,,,,,,,,,25.6,00.0,0673.5,31.2
2020-05-19T03:02:00Z,00000380,21000600,,,,,,,,,,25.6,00.0,0673.5,31.2
2020-05-19T03:03:00Z,00000380,61000600,,,,,,,,,,25.6,00.0,0673.5,31.2
2020-05-19T03:04:00Z,00000380,41000600,0001.37,0000.45,0000.19,0000.13,0000.20,0000.02,-000.10,0000.04,0000.07,25.4,00.0,0674.3,31.2
2020-05-19T03:05:00Z,00000380,01000600,0000.43,0000.37,0000.25,0000.46,0000.31,0000.36,0000.12,0000.11,-000.04,25.4,00.0,0674.4,31.2
2020-05-19T03:06:00Z,00000380,01000600,0000.63,0000.45,0000.11,-000.39,-000.13,-000.02,0000.09,0000.19,0000.06,25.3,00.0,0674.4,31.2
2020-05-19T03:07:00Z,00000380,01000600,0000.46,0000.05,0000.11,0000.14,0000.23,0000.18,0000.07,-000.07,0000.16,25.3,00.1,0674.4,31.2
2020-05-19T03:08:00Z,00000380,01000600,0000.12,-000.09,-000.08,-000.15,-000.06,-000.12,-000.10,-000.06,-000.04,25.3,00.1,0674.4,31.2
2020-05-19T03:09:00Z,00000380,01000600,-000.54,0000.19,0000.65,-000.07,0000.31,0000.57,0000.05,-000.06,0000.04,25.3,00.1,0674.4,31.1
2020-05-19T03:10:00Z,00000380,01000600,0000.70,0000.31,0000.23,0000.70,-000.27,0000.15,0000.12,0000.07,-000.09,25.3,00.1,0674.4,31.1